Milton, FL

10:34 PM CST on February 26, 2017 (GMT -0600)
Whiting Field Naval Air Station (South)

Weather History for KNDZ - February, 2014

Change the Weather History Date:

Sunday, February 9, 2014

  Actual Average (KNSE) Record (KNSE)
Temperature  
Mean Temperature 54 °F -  
Max Temperature 70 °F 61 °F 75 °F (1999)
Min Temperature 37 °F 44 °F 30 °F (2016)
Degree Days  
Heating Degree Days 12    
Growing Degree Days 4 (Base 50)    
Moisture  
Dew Point 44 °F    
Average Humidity 72    
Maximum Humidity 93    
Minimum Humidity 38    
Precipitation  
Precipitation 0.00 in - - ()
Sea Level Pressure  
Sea Level Pressure 30.10 in    
Wind  
Wind Speed 3 mph (NW)    
Max Wind Speed 8 mph    
Max Gust Speed -    
Visibility 9 miles    
Events Fog    
Averages and records for this station are not official NWS values.
T = Trace of Precipitation, MM = Missing Value Source: NWS Daily Summary

Daily Weather History Graph

Daily Weather History Graph

Search for Another Location

Airport or City:

Trip Planner

Search our weather history database for the weather conditions in past years. The results will help you decide how hot, cold, wet, or windy it might be!

Date:

Astronomy

Feb. 09, 2014 Rise Set
Actual Time 6:33 AM CST 5:31 PM CST
Civil Twilight 6:08 AM CST 5:55 PM CST
Nautical Twilight 5:40 AM CST 6:24 PM CST
Astronomical Twilight 5:12 AM CST 6:52 PM CST
Moon 1:17 PM CST (2/9) 2:31 AM CST (2/9)
Length of Visible Light 11h 47m
Length of Day
10h 57m
Waxing Gibbous, 77% of the Moon is Illuminated
Feb 9
Waxing Gibbous
Feb 14
Full
Feb 22
Last Quarter
Mar 1
New
Mar 8
First Quarter

Hourly Weather History & Observations

Time (CST) Temp. Windchill Dew Point Humidity Pressure Visibility Wind Dir Wind Speed Gust Speed Precip Events Conditions
12:56 AM 42.1 °F 40.2 °F 39.0 °F 89% 30.12 in 10.0 mi NW 3.5 mph - N/A   Clear
1:56 AM 43.0 °F 40.3 °F 39.9 °F 89% 30.09 in 10.0 mi NW 4.6 mph - N/A   Clear
2:56 AM 39.0 °F 35.7 °F 37.0 °F 93% 30.09 in 7.0 mi NW 4.6 mph - N/A   Clear
3:56 AM 42.1 °F 39.2 °F 39.0 °F 89% 30.11 in 10.0 mi NNW 4.6 mph - N/A   Clear
4:56 AM 44.1 °F - 39.0 °F 82% 30.11 in 10.0 mi Calm Calm - N/A   Partly Cloudy
5:56 AM 37.9 °F - 36.0 °F 93% 30.12 in 10.0 mi Calm Calm - N/A   Clear
6:56 AM 41.0 °F - 37.0 °F 86% 30.12 in 10.0 mi Calm Calm - N/A   Clear
7:56 AM 48.9 °F - 41.0 °F 74% 30.14 in 10.0 mi NE 4.6 mph - N/A   Clear
8:56 AM 54.0 °F - 42.1 °F 64% 30.17 in 10.0 mi ENE 3.5 mph - N/A   Clear
9:56 AM 62.1 °F - 43.0 °F 50% 30.17 in 10.0 mi NNW 5.8 mph - N/A   Clear
10:56 AM 64.0 °F - 45.0 °F 50% 30.15 in 10.0 mi Variable 5.8 mph - N/A   Clear
11:56 AM 66.0 °F - 46.0 °F 48% 30.12 in 10.0 mi NNW 6.9 mph - N/A   Clear
12:56 PM 68.0 °F - 45.0 °F 43% 30.08 in 10.0 mi North 8.1 mph - N/A   Clear
1:56 PM 68.0 °F - 45.0 °F 43% 30.06 in 10.0 mi Variable 3.5 mph - N/A   Clear
2:56 PM 69.1 °F - 44.1 °F 40% 30.04 in 10.0 mi SW 4.6 mph - N/A   Scattered Clouds
3:56 PM 70.0 °F - 43.0 °F 38% 30.04 in 10.0 mi Calm Calm - N/A   Partly Cloudy
4:56 PM 64.9 °F - 46.9 °F 52% 30.04 in 10.0 mi South 8.1 mph - N/A   Partly Cloudy
5:56 PM 59.0 °F - 46.9 °F 64% 30.07 in 10.0 mi SSW 3.5 mph - N/A   Clear
6:56 PM 55.9 °F - 48.0 °F 75% 30.07 in 10.0 mi SSW 3.5 mph - N/A   Clear
7:56 PM 55.0 °F - 48.0 °F 77% 30.07 in 10.0 mi Calm Calm - N/A   Clear
8:56 PM 54.0 °F - 48.0 °F 80% 30.09 in 10.0 mi Calm Calm - N/A   Clear
9:56 PM 53.1 °F - 48.0 °F 83% 30.09 in 10.0 mi Calm Calm - N/A   Clear
10:56 PM 51.1 °F - 48.0 °F 89% 30.08 in 10.0 mi Calm Calm - N/A   Clear
11:15 PM 48.9 °F - 46.9 °F 93% 30.11 in 1.5 mi Calm Calm - N/A   Clear
11:24 PM 48.9 °F - 46.9 °F 93% 30.11 in 0.8 mi Calm Calm - N/A   Clear
11:56 PM 46.9 °F - 44.1 °F 90% 30.07 in 0.2 mi Calm Calm - N/A Fog Fog